Regional Weather Roundup
Issued by NWS State College, PA

Home | Current Version | Previous Version | Graphics & Text | Print | Product List | Glossary Off
Versions: 1 2 3 4 5 6 7 8 9 10 11 12 13 14 15 16 17 18 19 20 21 22 23 24 25 26 27 28 29 30 31 32 33 34 35 36 37 38 39 40 41 42 43 44 45 46 47 48 49 50

000
ASUS41 KCTP 262003
RWRCTP

REGIONAL WEATHER ROUNDUP
NATIONAL WEATHER SERVICE STATE COLLEGE PA
400 PM EDT MON SEP 26 2016

Note: "fair" indicates few or no clouds below 12,000 feet with no
significant weather and/or obstructions to visibility.

* = STATION THAT DOES NOT REPORT PRECIPITATION /E.G. RAIN...SNOW...ETC/
    THUNDER OR FOG.

PAZ002>004-007>009-013>016-020>023-029>032-262100-
WESTERN PENNSYLVANIA

CITY           SKY/WX    TMP DP  RH WIND       PRES   REMARKS
ERIE           PTSUNNY   64  60  87 S13       29.90F
MEADVILLE      CLOUDY    61  58  90 SW7       29.94S
FRANKLIN*        N/A     61  57  88 SW5       29.95S
NEW CASTLE     LGT RAIN  63  61  93 CALM      29.95S
BEAVER COUNTY  LGT RAIN  64  59  82 CALM      29.94F
BUTLER*        PTSUNNY   64  57  77 CALM      29.97S
PITTSBURGH INT CLOUDY    65  63  93 W5        29.94F
PITTSBURGH     CLOUDY    70  58  65 NW8       29.93S
INDIANA*       CLOUDY    70  66  88 CALM      29.96R
LATROBE        PTSUNNY   72  68  88 NW12      29.93R
WASHINGTON CO* CLOUDY    66  57  72 NW5       29.95F
$$

PAZ004>006-010>012-017>019-024>028-033>037-041-042-045-046-049>053-262100-
CENTRAL PENNSYLVANIA

CITY           SKY/WX    TMP DP  RH WIND       PRES   REMARKS
BRADFORD       CLOUDY    67  59  75 S3        29.93F
DUBOIS         CLOUDY    69  60  73 CALM      29.93F
CLEARFIELD     RAIN      67  60  78 VRB5      29.96R
JOHNSTOWN      PTSUNNY   67  60  78 SE8G17    29.95S
ALTOONA        CLOUDY    64  59  83 SE12      29.98F
STATE COLLEGE  CLOUDY    64  57  77 S9        29.97F
WILLIAMSPORT   CLOUDY    67  57  70 E13G20    29.97F
SELINSGROVE    CLOUDY    64  59  83 S12       30.01F
FT INDIANTOWN  DRIZZLE   61  60  96 SE3       30.04F
CAPITAL CITY   LGT RAIN  64  60  87 SE12      30.03F FOG
HARRISBURG     LGT RAIN  63  63 100 SE10      30.02F FOG
YORK           CLOUDY    64  61  90 SE9G21    30.03F
$$

PAZ038>040-043-044-047-048-054-055-060>062-067>071-262100-
EASTERN PENNSYLVANIA

CITY           SKY/WX    TMP DP  RH WIND       PRES   REMARKS
SCRANTON       CLOUDY    64  52  64 S10G17    30.04F
MOUNT POCONO   CLOUDY    59  50  72 S13       30.08F
ALLENTOWN      CLOUDY    68  53  58 S9        30.06F
QUAKERTOWN*    CLOUDY    66  54  63 S6        30.07F
READING        CLOUDY    67  50  54 S7        30.05F
LANCASTER      CLOUDY    67  55  65 S8        30.04F
COATESVILLE    MOCLDY    66  52  59 VRB6      30.08F
POTTSTOWN      CLOUDY    67  50  54 S6        30.08F
BLUE BELL      CLOUDY    68  50  52 S6        30.06F
DOYLESTOWN     CLOUDY    70  51  51 S9        30.05F
WILLOW GROVE   NOT AVBL
NORTH PHILA    CLOUDY    72  49  44 VRB6      30.08F
PHILADELPHIA   CLOUDY    71  49  45 S10       30.07F
$$




USA.gov is the U.S. government's official web portal to all federal, state and local government web resources and services.